Wetterdaten: Woche 23.01.17 - 29.01.17 (KW4)
Datum Zeit Temperatur Luftfeuchte Luftdruck Niederschlag Windrichtung Sonnenschein Solar Wind
23.01.2017 00:00 -8,6 C 95 % 1026,3 hPa 0,0 l/m W-SW 0,00 h 0 W/m 5,9 km/h (2 Bft)
23.01.2017 01:00 -7,8 C 95 % 1025,9 hPa 0,0 l/m W-SW 0,00 h 0 W/m 4,4 km/h (1 Bft)
23.01.2017 02:00 -7,3 C 95 % 1025,7 hPa 0,0 l/m W-SW 0,00 h 0 W/m 6,4 km/h (2 Bft)
23.01.2017 03:00 -7,3 C 95 % 1025,7 hPa 0,0 l/m W-SW 0,00 h 0 W/m 3,9 km/h (1 Bft)
23.01.2017 04:00 -7,5 C 95 % 1025,5 hPa 0,0 l/m W-SW 0,00 h 0 W/m 2,0 km/h (1 Bft)
23.01.2017 05:00 -7,6 C 95 % 1025,1 hPa 0,0 l/m N 0,00 h 0 W/m 0,0 km/h (0 Bft)
23.01.2017 06:00 -7,7 C 95 % 1025,1 hPa 0,0 l/m N 0,00 h 0 W/m 0,0 km/h (0 Bft)
23.01.2017 07:00 -8,0 C 95 % 1025,2 hPa 0,0 l/m N 0,00 h 0 W/m 0,5 km/h (0 Bft)
23.01.2017 08:00 -8,5 C 95 % 1025,3 hPa 0,0 l/m N 0,00 h 21 W/m 0,0 km/h (0 Bft)
23.01.2017 09:00 -8,6 C 95 % 1025,5 hPa 0,0 l/m N 0,00 h 72 W/m 0,0 km/h (0 Bft)
23.01.2017 10:00 -8,4 C 95 % 1025,8 hPa 0,0 l/m N 0,00 h 115 W/m 0,0 km/h (0 Bft)
23.01.2017 11:00 -7,5 C 96 % 1025,6 hPa 0,0 l/m N 0,75 h 224 W/m 0,0 km/h (0 Bft)
23.01.2017 12:00 -6,7 C 96 % 1025,2 hPa 0,0 l/m N 0,92 h 296 W/m 0,0 km/h (0 Bft)
23.01.2017 13:00 -5,7 C 95 % 1024,3 hPa 0,0 l/m W-SW 1,00 h 335 W/m 2,7 km/h (1 Bft)
23.01.2017 14:00 -5,1 C 93 % 1024,1 hPa 0,0 l/m W-SW 1,00 h 243 W/m 1,7 km/h (1 Bft)
23.01.2017 15:00 -4,6 C 91 % 1024,2 hPa 0,0 l/m W-SW 0,58 h 120 W/m 0,8 km/h (0 Bft)
23.01.2017 16:00 -5,2 C 91 % 1024,5 hPa 0,0 l/m N 0,08 h 31 W/m 0,0 km/h (0 Bft)
23.01.2017 17:00 -6,2 C 92 % 1024,9 hPa 0,0 l/m N 0,00 h 6 W/m 0,0 km/h (0 Bft)
23.01.2017 18:00 -7,4 C 91 % 1025,0 hPa 0,0 l/m N 0,00 h 0 W/m 0,0 km/h (0 Bft)
23.01.2017 19:00 -8,9 C 91 % 1025,1 hPa 0,0 l/m N 0,00 h 0 W/m 0,0 km/h (0 Bft)
23.01.2017 20:00 -10,4 C 91 % 1025,2 hPa 0,0 l/m N 0,00 h 0 W/m 0,0 km/h (0 Bft)
23.01.2017 21:00 -11,2 C 92 % 1025,1 hPa 0,0 l/m N 0,00 h 0 W/m 0,0 km/h (0 Bft)
23.01.2017 22:00 -11,9 C 92 % 1025,0 hPa 0,0 l/m N 0,00 h 0 W/m 0,0 km/h (0 Bft)
23.01.2017 23:00 -12,0 C 93 % 1025,0 hPa 0,0 l/m N 0,00 h 0 W/m 0,0 km/h (0 Bft)
24.01.2017 00:00 -11,3 C 94 % 1025,0 hPa 0,0 l/m N 0,00 h 0 W/m 0,0 km/h (0 Bft)
24.01.2017 01:00 -11,2 C 93 % 1025,3 hPa 0,0 l/m N 0,00 h 0 W/m 0,0 km/h (0 Bft)
24.01.2017 02:00 -12,0 C 93 % 1025,7 hPa 0,0 l/m N 0,00 h 0 W/m 0,0 km/h (0 Bft)
24.01.2017 03:00 -12,3 C 93 % 1025,9 hPa 0,0 l/m N 0,00 h 0 W/m 0,0 km/h (0 Bft)
24.01.2017 04:00 -11,6 C 94 % 1025,9 hPa 0,0 l/m N 0,00 h 0 W/m 0,0 km/h (0 Bft)
24.01.2017 05:00 -10,7 C 94 % 1025,9 hPa 0,0 l/m N 0,00 h 0 W/m 0,0 km/h (0 Bft)
24.01.2017 06:00 -10,2 C 94 % 1026,2 hPa 0,0 l/m N 0,00 h 0 W/m 0,0 km/h (0 Bft)
24.01.2017 07:00 -9,7 C 94 % 1026,5 hPa 0,0 l/m N 0,00 h 0 W/m 0,0 km/h (0 Bft)
24.01.2017 08:00 -9,1 C 94 % 1027,0 hPa 0,0 l/m N 0,00 h 11 W/m 0,0 km/h (0 Bft)
24.01.2017 09:00 -8,7 C 95 % 1027,2 hPa 0,0 l/m N 0,00 h 24 W/m 0,0 km/h (0 Bft)
24.01.2017 10:00 -8,2 C 95 % 1027,6 hPa 0,0 l/m N 0,00 h 65 W/m 0,0 km/h (0 Bft)
24.01.2017 11:00 -7,1 C 95 % 1027,6 hPa 0,0 l/m N 0,00 h 105 W/m 0,0 km/h (0 Bft)
24.01.2017 12:00 -6,4 C 94 % 1027,4 hPa 0,0 l/m N 0,00 h 120 W/m 0,0 km/h (0 Bft)
24.01.2017 13:00 -6,2 C 93 % 1027,0 hPa 0,0 l/m SW 0,00 h 88 W/m 4,1 km/h (1 Bft)
24.01.2017 14:00 -6,3 C 92 % 1027,1 hPa 0,0 l/m S-SO 0,00 h 67 W/m 5,9 km/h (2 Bft)
24.01.2017 15:00 -6,3 C 91 % 1027,4 hPa 0,0 l/m SO 0,00 h 47 W/m 5,6 km/h (1 Bft)
24.01.2017 16:00 -6,7 C 91 % 1028,1 hPa 0,0 l/m O 0,00 h 12 W/m 8,8 km/h (2 Bft)
24.01.2017 17:00 -7,1 C 92 % 1028,7 hPa 0,0 l/m O 0,00 h 0 W/m 10,2 km/h (2 Bft)
24.01.2017 18:00 -7,4 C 93 % 1028,8 hPa 0,0 l/m O 0,00 h 0 W/m 10,6 km/h (2 Bft)
24.01.2017 19:00 -7,4 C 93 % 1029,0 hPa 0,0 l/m O-NO 0,00 h 0 W/m 7,8 km/h (2 Bft)
24.01.2017 20:00 -7,3 C 94 % 1029,0 hPa 0,0 l/m O-NO 0,00 h 0 W/m 10,3 km/h (2 Bft)
24.01.2017 21:00 -7,6 C 94 % 1029,0 hPa 0,0 l/m O 0,00 h 0 W/m 12,6 km/h (3 Bft)
24.01.2017 22:00 -7,7 C 94 % 1028,9 hPa 0,0 l/m O 0,00 h 0 W/m 12,8 km/h (3 Bft)
24.01.2017 23:00 -7,7 C 94 % 1028,7 hPa 0,0 l/m O-NO 0,00 h 0 W/m 10,6 km/h (2 Bft)
25.01.2017 00:00 -7,8 C 94 % 1028,4 hPa 0,0 l/m O-NO 0,00 h 0 W/m 11,1 km/h (2 Bft)
25.01.2017 01:00 -8,0 C 94 % 1028,2 hPa 0,0 l/m O 0,00 h 0 W/m 13,6 km/h (3 Bft)
25.01.2017 02:00 -8,2 C 94 % 1028,0 hPa 0,0 l/m O-NO 0,00 h 0 W/m 16,9 km/h (3 Bft)
25.01.2017 03:00 -8,6 C 94 % 1027,9 hPa 0,0 l/m O 0,00 h 0 W/m 15,7 km/h (3 Bft)
25.01.2017 04:00 -8,9 C 94 % 1028,0 hPa 0,0 l/m O-NO 0,00 h 0 W/m 15,8 km/h (3 Bft)
25.01.2017 05:00 -9,4 C 94 % 1028,2 hPa 0,0 l/m O 0,00 h 0 W/m 16,1 km/h (3 Bft)
25.01.2017 06:00 -9,5 C 94 % 1028,2 hPa 0,0 l/m O 0,00 h 0 W/m 13,0 km/h (3 Bft)
25.01.2017 07:00 -9,7 C 94 % 1028,4 hPa 0,0 l/m O-NO 0,00 h 0 W/m 15,2 km/h (3 Bft)
25.01.2017 08:00 -9,7 C 94 % 1028,7 hPa 0,0 l/m O-NO 0,00 h 12 W/m 14,4 km/h (3 Bft)
25.01.2017 09:00 -9,6 C 94 % 1028,8 hPa 0,0 l/m O-NO 0,00 h 41 W/m 13,0 km/h (3 Bft)
25.01.2017 10:00 -9,5 C 94 % 1029,3 hPa 0,0 l/m O-NO 0,00 h 77 W/m 17,4 km/h (3 Bft)
25.01.2017 11:00 -8,9 C 92 % 1029,3 hPa 0,0 l/m O-NO 0,00 h 126 W/m 15,7 km/h (3 Bft)
25.01.2017 12:00 -8,4 C 91 % 1028,7 hPa 0,0 l/m O-NO 0,00 h 121 W/m 16,0 km/h (3 Bft)
25.01.2017 13:00 -7,8 C 91 % 1028,1 hPa 0,0 l/m O-NO 0,00 h 128 W/m 14,4 km/h (3 Bft)
25.01.2017 14:00 -7,4 C 91 % 1027,9 hPa 0,0 l/m O 0,00 h 83 W/m 13,0 km/h (3 Bft)
25.01.2017 15:00 -7,3 C 91 % 1028,1 hPa 0,0 l/m O 0,00 h 49 W/m 12,6 km/h (3 Bft)
25.01.2017 16:00 -7,2 C 91 % 1028,5 hPa 0,0 l/m O 0,00 h 16 W/m 14,6 km/h (3 Bft)
25.01.2017 17:00 -6,9 C 93 % 1028,5 hPa 0,0 l/m O 0,00 h 0 W/m 17,0 km/h (3 Bft)
25.01.2017 18:00 -6,8 C 93 % 1028,5 hPa 0,0 l/m O 0,00 h 0 W/m 16,4 km/h (3 Bft)
25.01.2017 19:00 -6,7 C 93 % 1028,6 hPa 0,0 l/m O-SO 0,00 h 0 W/m 14,1 km/h (3 Bft)
25.01.2017 20:00 -6,8 C 93 % 1028,6 hPa 0,0 l/m O-SO 0,00 h 0 W/m 14,1 km/h (3 Bft)
25.01.2017 21:00 -6,7 C 93 % 1028,7 hPa 0,0 l/m O-SO 0,00 h 0 W/m 13,4 km/h (3 Bft)
25.01.2017 22:00 -6,4 C 94 % 1028,7 hPa 0,0 l/m O 0,00 h 0 W/m 11,1 km/h (2 Bft)
25.01.2017 23:00 -6,1 C 94 % 1028,5 hPa 0,0 l/m O 0,00 h 0 W/m 12,0 km/h (2 Bft)
26.01.2017 00:00 -5,8 C 94 % 1028,3 hPa 0,0 l/m O-SO 0,00 h 0 W/m 12,8 km/h (3 Bft)
26.01.2017 01:00 -5,7 C 94 % 1027,9 hPa 0,0 l/m O-SO 0,00 h 0 W/m 9,5 km/h (2 Bft)
26.01.2017 02:00 -5,6 C 94 % 1028,0 hPa 0,0 l/m O 0,00 h 0 W/m 11,7 km/h (2 Bft)
26.01.2017 03:00 -5,6 C 94 % 1027,7 hPa 0,0 l/m O-SO 0,00 h 0 W/m 15,3 km/h (3 Bft)
26.01.2017 04:00 -5,6 C 94 % 1027,4 hPa 0,0 l/m O-SO 0,00 h 0 W/m 12,9 km/h (3 Bft)
26.01.2017 05:00 -5,6 C 94 % 1027,3 hPa 0,0 l/m O 0,00 h 0 W/m 13,4 km/h (3 Bft)
26.01.2017 06:00 -5,8 C 94 % 1026,9 hPa 0,0 l/m O 0,00 h 0 W/m 12,5 km/h (3 Bft)
26.01.2017 07:00 -5,9 C 94 % 1026,6 hPa 0,0 l/m O-SO 0,00 h 0 W/m 7,6 km/h (2 Bft)
26.01.2017 08:00 -6,1 C 94 % 1026,5 hPa 0,0 l/m O-SO 0,00 h 14 W/m 12,8 km/h (3 Bft)
26.01.2017 09:00 -6,0 C 94 % 1026,2 hPa 0,0 l/m O-SO 0,00 h 53 W/m 12,2 km/h (2 Bft)
26.01.2017 10:00 -5,8 C 94 % 1026,1 hPa 0,0 l/m O-SO 0,00 h 94 W/m 12,0 km/h (2 Bft)
26.01.2017 11:00 -5,3 C 93 % 1025,8 hPa 0,0 l/m O 0,00 h 120 W/m 14,1 km/h (3 Bft)
26.01.2017 12:00 -5,0 C 93 % 1025,2 hPa 0,0 l/m O 0,00 h 139 W/m 16,0 km/h (3 Bft)
26.01.2017 13:00 -4,5 C 92 % 1024,4 hPa 0,0 l/m O 0,00 h 148 W/m 15,0 km/h (3 Bft)
26.01.2017 14:00 -4,5 C 92 % 1024,1 hPa 0,0 l/m O-NO 0,00 h 107 W/m 12,9 km/h (3 Bft)
26.01.2017 15:00 -4,5 C 92 % 1024,0 hPa 0,0 l/m O 0,00 h 65 W/m 10,9 km/h (2 Bft)
26.01.2017 16:00 -4,7 C 92 % 1024,0 hPa 0,0 l/m O-SO 0,00 h 22 W/m 9,9 km/h (2 Bft)
26.01.2017 17:00 -4,9 C 92 % 1024,1 hPa 0,0 l/m O 0,00 h 5 W/m 11,0 km/h (2 Bft)
26.01.2017 18:00 -5,1 C 92 % 1024,1 hPa 0,0 l/m O-NO 0,00 h 0 W/m 10,6 km/h (2 Bft)
26.01.2017 19:00 -5,3 C 92 % 1023,9 hPa 0,0 l/m O 0,00 h 0 W/m 4,4 km/h (1 Bft)
26.01.2017 20:00 -5,8 C 92 % 1023,5 hPa 0,0 l/m N 0,00 h 0 W/m 0,0 km/h (0 Bft)
26.01.2017 21:00 -7,0 C 91 % 1023,5 hPa 0,0 l/m N 0,00 h 0 W/m 0,0 km/h (0 Bft)
26.01.2017 22:00 -7,8 C 92 % 1023,6 hPa 0,0 l/m N 0,00 h 0 W/m 0,0 km/h (0 Bft)
26.01.2017 23:00 -8,3 C 92 % 1023,6 hPa 0,0 l/m N 0,00 h 0 W/m 0,0 km/h (0 Bft)
27.01.2017 00:00 -9,1 C 92 % 1023,4 hPa 0,0 l/m N 0,00 h 0 W/m 0,0 km/h (0 Bft)
27.01.2017 01:00 -9,3 C 92 % 1023,4 hPa 0,0 l/m N 0,00 h 0 W/m 0,0 km/h (0 Bft)
27.01.2017 02:00 -10,0 C 92 % 1023,2 hPa 0,0 l/m O-NO 0,00 h 0 W/m 2,7 km/h (1 Bft)
27.01.2017 03:00 -10,3 C 92 % 1023,2 hPa 0,0 l/m N 0,00 h 0 W/m 4,8 km/h (1 Bft)
27.01.2017 04:00 -10,7 C 92 % 1023,3 hPa 0,0 l/m N 0,00 h 0 W/m 5,5 km/h (1 Bft)
27.01.2017 05:00 -11,2 C 92 % 1023,1 hPa 0,0 l/m N 0,00 h 0 W/m 2,7 km/h (1 Bft)
27.01.2017 06:00 -11,5 C 92 % 1023,1 hPa 0,0 l/m N 0,00 h 0 W/m 7,2 km/h (2 Bft)
27.01.2017 07:00 -11,4 C 93 % 1023,4 hPa 0,0 l/m N 0,00 h 7 W/m 3,5 km/h (1 Bft)
27.01.2017 08:00 -10,9 C 93 % 1023,8 hPa 0,0 l/m N 0,83 h 53 W/m 5,5 km/h (1 Bft)
27.01.2017 09:00 -9,5 C 94 % 1024,0 hPa 0,0 l/m N 0,92 h 167 W/m 6,5 km/h (2 Bft)
27.01.2017 10:00 -7,5 C 93 % 1024,2 hPa 0,0 l/m N 1,00 h 267 W/m 7,8 km/h (2 Bft)
27.01.2017 11:00 -5,1 C 89 % 1023,8 hPa 0,0 l/m N 1,00 h 335 W/m 8,4 km/h (2 Bft)
27.01.2017 12:00 -3,2 C 86 % 1023,0 hPa 0,0 l/m N-NW 1,00 h 353 W/m 9,3 km/h (2 Bft)
27.01.2017 13:00 -1,3 C 83 % 1022,2 hPa 0,0 l/m N-NW 1,00 h 344 W/m 7,1 km/h (2 Bft)
27.01.2017 14:00 0,1 C 80 % 1021,8 hPa 0,0 l/m N-NW 1,00 h 273 W/m 6,6 km/h (2 Bft)
27.01.2017 15:00 0,5 C 78 % 1021,5 hPa 0,0 l/m N-NW 0,58 h 128 W/m 5,3 km/h (1 Bft)
27.01.2017 16:00 -1,1 C 82 % 1021,4 hPa 0,0 l/m N-NW 0,00 h 28 W/m 6,0 km/h (2 Bft)
27.01.2017 17:00 -2,3 C 85 % 1021,4 hPa 0,0 l/m N-NW 0,00 h 6 W/m 4,3 km/h (1 Bft)
27.01.2017 18:00 -3,5 C 86 % 1021,5 hPa 0,0 l/m N-NW 0,00 h 0 W/m 5,2 km/h (1 Bft)
27.01.2017 19:00 -4,5 C 88 % 1021,6 hPa 0,0 l/m N-NW 0,00 h 0 W/m 3,3 km/h (1 Bft)
27.01.2017 20:00 -5,3 C 89 % 1021,4 hPa 0,0 l/m N-NW 0,00 h 0 W/m 5,7 km/h (1 Bft)
27.01.2017 21:00 -5,6 C 90 % 1021,2 hPa 0,0 l/m N-NW 0,00 h 0 W/m 6,0 km/h (2 Bft)
27.01.2017 22:00 -6,0 C 90 % 1021,4 hPa 0,0 l/m N-NW 0,00 h 0 W/m 5,2 km/h (1 Bft)
27.01.2017 23:00 -6,1 C 91 % 1021,5 hPa 0,0 l/m N-NW 0,00 h 0 W/m 2,0 km/h (1 Bft)
28.01.2017 00:00 -6,1 C 91 % 1021,2 hPa 0,0 l/m N-NW 0,00 h 0 W/m 0,9 km/h (0 Bft)
28.01.2017 01:00 -6,5 C 92 % 1020,7 hPa 0,0 l/m N-NW 0,00 h 0 W/m 1,5 km/h (1 Bft)
28.01.2017 02:00 -7,2 C 91 % 1020,5 hPa 0,0 l/m N 0,00 h 0 W/m 0,3 km/h (0 Bft)
28.01.2017 03:00 -8,0 C 91 % 1020,6 hPa 0,0 l/m N 0,00 h 0 W/m 0,0 km/h (0 Bft)
28.01.2017 04:00 -9,0 C 91 % 1020,7 hPa 0,0 l/m N 0,00 h 0 W/m 0,0 km/h (0 Bft)
28.01.2017 05:00 -9,6 C 91 % 1020,9 hPa 0,0 l/m N 0,00 h 0 W/m 0,0 km/h (0 Bft)
28.01.2017 06:00 -10,0 C 91 % 1021,0 hPa 0,0 l/m N 0,00 h 0 W/m 0,0 km/h (0 Bft)
28.01.2017 07:00 -10,4 C 92 % 1021,3 hPa 0,0 l/m N 0,00 h 6 W/m 0,0 km/h (0 Bft)
28.01.2017 08:00 -10,2 C 92 % 1021,5 hPa 0,0 l/m N 0,25 h 42 W/m 0,0 km/h (0 Bft)
28.01.2017 09:00 -9,2 C 93 % 1021,6 hPa 0,0 l/m N 0,92 h 185 W/m 0,0 km/h (0 Bft)
28.01.2017 10:00 -6,1 C 91 % 1021,9 hPa 0,0 l/m N-NW 1,00 h 277 W/m 0,7 km/h (0 Bft)
28.01.2017 11:00 -2,5 C 84 % 1021,8 hPa 0,0 l/m N 1,00 h 367 W/m 0,8 km/h (0 Bft)
28.01.2017 12:00 1,3 C 78 % 1021,3 hPa 0,0 l/m N 1,00 h 403 W/m 1,3 km/h (1 Bft)
28.01.2017 13:00 4,3 C 70 % 1020,5 hPa 0,0 l/m N 1,00 h 359 W/m 0,3 km/h (0 Bft)
28.01.2017 14:00 6,7 C 62 % 1020,1 hPa 0,0 l/m N 1,00 h 284 W/m 0,0 km/h (0 Bft)
28.01.2017 15:00 6,5 C 65 % 1020,1 hPa 0,0 l/m N 0,75 h 145 W/m 0,0 km/h (0 Bft)
28.01.2017 16:00 3,7 C 77 % 1020,3 hPa 0,0 l/m NW 0,00 h 31 W/m 0,0 km/h (0 Bft)
28.01.2017 17:00 1,5 C 84 % 1020,7 hPa 0,0 l/m NW 0,00 h 6 W/m 3,7 km/h (1 Bft)
28.01.2017 18:00 0,7 C 84 % 1021,0 hPa 0,0 l/m NW 0,00 h 0 W/m 5,6 km/h (1 Bft)
28.01.2017 19:00 -0,4 C 84 % 1021,3 hPa 0,0 l/m NW 0,00 h 0 W/m 2,3 km/h (1 Bft)
28.01.2017 20:00 -1,5 C 85 % 1021,5 hPa 0,0 l/m NW 0,00 h 0 W/m 2,1 km/h (1 Bft)
28.01.2017 21:00 -1,9 C 87 % 1021,8 hPa 0,0 l/m NW 0,00 h 0 W/m 8,0 km/h (2 Bft)
28.01.2017 22:00 -2,4 C 86 % 1022,4 hPa 0,0 l/m NW 0,00 h 0 W/m 7,1 km/h (2 Bft)
28.01.2017 23:00 -3,1 C 86 % 1022,6 hPa 0,0 l/m NW 0,00 h 0 W/m 1,2 km/h (1 Bft)
29.01.2017 00:00 -4,2 C 86 % 1022,8 hPa 0,0 l/m NW 0,00 h 0 W/m 1,3 km/h (1 Bft)
29.01.2017 01:00 -5,1 C 87 % 1023,0 hPa 0,0 l/m N 0,00 h 0 W/m 0,0 km/h (0 Bft)
29.01.2017 02:00 -6,0 C 88 % 1023,2 hPa 0,0 l/m N 0,00 h 0 W/m 0,0 km/h (0 Bft)
29.01.2017 03:00 -6,7 C 88 % 1023,4 hPa 0,0 l/m N 0,00 h 0 W/m 0,0 km/h (0 Bft)
29.01.2017 04:00 -7,2 C 89 % 1023,6 hPa 0,0 l/m N 0,00 h 0 W/m 0,0 km/h (0 Bft)
29.01.2017 05:00 -7,6 C 90 % 1023,8 hPa 0,0 l/m N 0,00 h 0 W/m 0,0 km/h (0 Bft)
29.01.2017 06:00 -8,0 C 91 % 1024,1 hPa 0,0 l/m N 0,00 h 0 W/m 0,0 km/h (0 Bft)
29.01.2017 07:00 -8,1 C 92 % 1024,5 hPa 0,0 l/m N 0,00 h 6 W/m 0,0 km/h (0 Bft)
29.01.2017 08:00 -8,0 C 92 % 1024,8 hPa 0,0 l/m N 0,50 h 47 W/m 0,0 km/h (0 Bft)
29.01.2017 09:00 -6,5 C 94 % 1024,9 hPa 0,0 l/m N 0,92 h 161 W/m 0,0 km/h (0 Bft)
29.01.2017 10:00 -3,3 C 94 % 1024,9 hPa 0,0 l/m NW 1,00 h 282 W/m 0,4 km/h (0 Bft)
29.01.2017 11:00 1,1 C 85 % 1024,5 hPa 0,0 l/m NW 1,00 h 351 W/m 4,4 km/h (1 Bft)
29.01.2017 12:00 4,3 C 75 % 1023,8 hPa 0,0 l/m SW 1,00 h 380 W/m 7,6 km/h (2 Bft)
29.01.2017 13:00 5,6 C 70 % 1023,0 hPa 0,0 l/m SW 1,00 h 354 W/m 6,7 km/h (2 Bft)
29.01.2017 14:00 6,0 C 68 % 1022,4 hPa 0,0 l/m S-SW 1,00 h 275 W/m 5,2 km/h (1 Bft)
29.01.2017 15:00 6,1 C 67 % 1022,3 hPa 0,0 l/m S-SW 0,75 h 144 W/m 5,5 km/h (1 Bft)
29.01.2017 16:00 4,9 C 71 % 1022,5 hPa 0,0 l/m S-SW 0,00 h 30 W/m 0,9 km/h (0 Bft)
29.01.2017 17:00 2,1 C 79 % 1022,7 hPa 0,0 l/m N 0,08 h 8 W/m 0,0 km/h (0 Bft)
29.01.2017 18:00 0,7 C 82 % 1023,1 hPa 0,0 l/m N 0,00 h 0 W/m 0,0 km/h (0 Bft)
29.01.2017 19:00 -0,6 C 84 % 1023,4 hPa 0,0 l/m N 0,00 h 0 W/m 0,0 km/h (0 Bft)
29.01.2017 20:00 -1,6 C 86 % 1023,3 hPa 0,0 l/m N 0,00 h 0 W/m 0,0 km/h (0 Bft)
29.01.2017 21:00 -2,4 C 87 % 1023,1 hPa 0,0 l/m N 0,00 h 0 W/m 0,0 km/h (0 Bft)
29.01.2017 22:00 -3,0 C 89 % 1023,0 hPa 0,0 l/m N 0,00 h 0 W/m 0,0 km/h (0 Bft)
29.01.2017 23:00 -3,6 C 90 % 1022,7 hPa 0,0 l/m N 0,00 h 0 W/m 0,0 km/h (0 Bft)
Min-Datum _ 24.01.17 28.01.17 28.01.17 - - - - 23.01.17
_ Min-Zeit 03:05 14:45 14:25 - - - - 01:05
Minimum _ -12,4 C 59 % 1020,0 hPa - - - - 0,0 km/h (0 Bft)
Max-Datum _ 28.01.17 25.01.17 25.01.17 23.01.17 - 23.01.17 28.01.17 25.01.17
_ Max-Zeit 14:50 17:20 11:00 00:00 - 11:15 12:25 08:35
Maximum _ 7,7 C 100 % 1029,5 hPa 0,0 l/m - 0,08 h 413 W/m 22,5 km/h
O-NO (4 Bft)
Durchschnitt _ -6,0 C 90 % 1024,8 hPa #0,0 l/m O #25:50 h 134 W/m 5,4 km/h (1 Bft)